Date String (YYYY-MM-DD hh:mm:ss) UTC,Instrument flags,absolute air pressure of the measurement (hPa),sample flow rate (lpm),inlet stack bypass flow (lpm),air temperature of the measurement (°C),ambient temperature measured by the external sensor (°C),aerosol sample conditioner tube jacket temperature (°C),OPC LED temperature (°C),internal box temperature (°C),relative humidity of the measurement (%),span deviation,mass concentration of particles derived from Lorenz-Mie calculation of OPC scattering (μg/m³),mass concentration of particles derived from Lorenz-Mie calculation of OPC scattering (μg/m³),mass concentration of particles derived from Lorenz-Mie calculation of OPC scattering (μg/m³)
DateTimeUTC,F1_M11,P_M11,Q1_M11,Q2_M11,T1_M11,T2_M11,T3_M11,T4_M11,T5_M11,U1_M11,ZSPAN_M11,X0_M11,X2_M11,X1_M11
2024-05-01 07:00:00,SystemResetWarning,0827.0,5.01,000.00,025.4,024.5,000.0,034.0,027.2,012.3,0000.0,0006.96,0003.32,0001.91
2024-05-01 07:01:00,SystemResetWarning,0826.9,5.01,000.00,025.4,024.5,000.0,034.0,027.2,012.0,0000.0,0007.29,0003.37,0001.91
2024-05-01 07:02:00,SystemResetWarning,0826.9,5.00,000.00,025.4,024.5,000.0,034.0,027.2,012.1,0000.0,0007.58,0003.36,0001.91
2024-05-01 07:03:00,SystemResetWarning,0826.9,4.99,000.00,025.4,024.5,000.0,034.0,027.2,012.0,0000.0,0007.74,0003.37,0001.93
2024-05-01 07:04:00,SystemResetWarning,0826.9,4.99,000.00,025.4,024.5,000.0,034.0,027.2,012.2,0000.0,0007.71,0003.38,0001.94
2024-05-01 07:05:00,SystemResetWarning,0826.9,5.00,000.00,025.4,024.5,000.0,034.0,027.2,012.2,0000.0,0007.81,0003.39,0001.94
2024-05-01 07:06:00,SystemResetWarning,0826.9,5.00,000.00,025.3,024.5,000.0,034.0,027.2,012.1,0000.0,0008.32,0003.46,0001.94
2024-05-01 07:07:00,SystemResetWarning,0826.9,5.00,000.00,025.3,024.4,000.0,034.0,027.2,012.3,0000.0,0009.18,0003.54,0001.96
2024-05-01 07:08:00,SystemResetWarning,0826.8,5.01,000.00,025.3,024.4,000.0,034.0,027.1,012.2,0000.0,0009.25,0003.57,0001.97
2024-05-01 07:09:00,SystemResetWarning,0826.8,5.00,000.00,025.3,024.4,000.0,034.0,027.1,012.3,0000.0,0009.22,0003.56,0001.97
2024-05-01 07:10:00,SystemResetWarning,0826.8,4.99,000.00,025.3,024.4,000.0,034.0,027.1,012.3,0000.0,0009.12,0003.53,0001.97
2024-05-01 07:11:00,SystemResetWarning,0826.8,4.99,000.00,025.3,024.4,000.0,033.9,027.1,012.2,0000.0,0009.09,0003.51,0001.97
2024-05-01 07:12:00,SystemResetWarning,0826.7,5.01,000.00,025.3,024.4,000.0,033.9,027.1,012.3,0000.0,0009.12,0003.52,0001.97
2024-05-01 07:13:00,SystemResetWarning,0826.8,5.01,000.00,025.3,024.4,000.0,033.9,027.1,012.3,0000.0,0008.92,0003.51,0001.97
2024-05-01 07:14:00,SystemResetWarning,0826.8,5.00,000.00,025.3,024.4,000.0,033.9,027.1,012.4,0000.0,0008.52,0003.52,0001.96
2024-05-01 07:15:00,SystemResetWarning,0826.8,5.00,000.00,025.3,024.4,000.0,033.9,027.1,012.4,0000.0,0008.51,0003.51,0001.96
2024-05-01 07:16:00,SystemResetWarning,0826.8,4.99,000.00,025.3,024.4,000.0,033.9,027.1,012.3,0000.0,0008.48,0003.46,0001.95
2024-05-01 07:17:00,SystemResetWarning,0826.8,4.99,000.00,025.3,024.5,000.0,033.9,027.1,012.3,0000.0,0008.91,0003.44,0001.96
2024-05-01 07:18:00,SystemResetWarning,0826.8,5.00,000.00,025.3,024.5,000.0,033.9,027.1,012.3,0000.0,0008.88,0003.39,0001.95
2024-05-01 07:19:00,SystemResetWarning,0826.8,5.01,000.00,025.3,024.5,000.0,033.9,027.1,012.2,0000.0,0008.57,0003.33,0001.94
2024-05-01 07:20:00,SystemResetWarning,0826.7,5.01,000.00,025.3,024.5,000.0,033.9,027.1,012.1,0000.0,0008.60,0003.33,0001.93
2024-05-01 07:21:00,SystemResetWarning,0826.7,4.99,000.00,025.3,024.5,000.0,033.9,027.1,012.1,0000.0,0008.51,0003.30,0001.93
2024-05-01 07:22:00,SystemResetWarning,0826.6,5.00,000.00,025.3,024.5,000.0,033.9,027.1,012.0,0000.0,0008.77,0003.32,0001.92
2024-05-01 07:23:00,SystemResetWarning,0826.6,5.00,000.00,025.3,024.5,000.0,033.9,027.1,012.0,0000.0,0008.78,0003.30,0001.91
2024-05-01 07:24:00,SystemResetWarning,0826.6,5.01,000.00,025.3,024.4,000.0,033.9,027.1,012.0,0000.0,0009.42,0003.28,0001.91
2024-05-01 07:25:00,SystemResetWarning,0826.6,5.00,000.00,025.3,024.4,000.0,033.9,027.1,012.0,0000.0,0009.65,0003.26,0001.92
2024-05-01 07:26:00,SystemResetWarning,0826.6,4.99,000.00,025.3,024.4,000.0,033.9,027.1,012.0,0000.0,0010.21,0003.28,0001.93
2024-05-01 07:27:00,SystemResetWarning,0826.4,4.99,000.00,025.2,024.4,000.0,033.8,027.1,011.9,0000.0,0010.41,0003.30,0001.94
2024-05-01 07:28:00,SystemResetWarning,0826.4,5.00,000.00,025.2,024.4,000.0,033.8,027.0,012.0,0000.0,0009.99,0003.30,0001.93
2024-05-01 07:29:00,SystemResetWarning,0826.4,4.99,000.00,025.2,024.4,000.0,033.8,027.0,012.1,0000.0,0009.27,0003.31,0001.92
2024-05-01 07:30:00,SystemResetWarning,0826.4,4.99,000.00,025.2,024.3,000.0,033.8,027.0,012.2,0000.0,0009.33,0003.30,0001.94
2024-05-01 07:31:00,SystemResetWarning,0826.4,4.99,000.00,025.2,024.3,000.0,033.8,027.0,011.8,0000.0,0009.65,0003.30,0001.93
2024-05-01 07:32:00,SystemResetWarning,0826.6,5.01,000.00,025.2,024.3,000.0,033.8,027.0,011.9,0000.0,0009.74,0003.32,0001.93
2024-05-01 07:33:00,SystemResetWarning,0826.6,5.01,000.00,025.2,024.3,000.0,033.8,027.0,011.9,0000.0,0010.57,0003.35,0001.94
2024-05-01 07:34:00,SystemResetWarning,0826.6,5.00,000.00,025.2,024.3,000.0,033.8,027.0,011.7,0000.0,0010.85,0003.39,0001.96
2024-05-01 07:35:00,SystemResetWarning,0826.7,5.00,000.00,025.1,024.3,000.0,033.8,027.0,011.9,0000.0,0010.15,0003.37,0001.95
2024-05-01 07:36:00,SystemResetWarning,0826.7,5.00,000.00,025.1,024.3,000.0,033.8,027.0,011.9,0000.0,0010.38,0003.37,0001.94
2024-05-01 07:37:00,SystemResetWarning,0826.6,4.99,000.00,025.1,024.3,000.0,033.8,026.9,012.1,0000.0,0010.18,0003.40,0001.92
2024-05-01 07:38:00,SystemResetWarning,0826.6,5.00,000.00,025.1,024.3,000.0,033.8,026.9,012.2,0000.0,0009.96,0003.37,0001.91
2024-05-01 07:39:00,SystemResetWarning,0826.6,5.01,000.00,025.1,024.3,000.0,033.7,026.9,012.2,0000.0,0009.89,0003.33,0001.91
2024-05-01 07:40:00,SystemResetWarning,0826.6,5.00,000.00,025.1,024.3,000.0,033.7,026.9,012.1,0000.0,0010.22,0003.30,0001.92
2024-05-01 07:41:00,SystemResetWarning,0826.6,5.00,000.00,025.1,024.3,000.0,033.7,027.0,012.3,0000.0,0010.69,0003.30,0001.90
2024-05-01 07:42:00,SystemResetWarning,0826.6,5.00,000.00,025.1,024.3,000.0,033.7,026.9,012.2,0000.0,0010.31,0003.31,0001.92
2024-05-01 07:43:00,SystemResetWarning,0826.6,5.01,000.00,025.1,024.3,000.0,033.7,026.9,012.1,0000.0,0010.80,0003.34,0001.93
2024-05-01 07:44:00,SystemResetWarning,0826.6,5.00,000.00,025.1,024.3,000.0,033.7,026.9,012.0,0000.0,0010.01,0003.32,0001.91
2024-05-01 07:45:00,SystemResetWarning,0826.6,5.01,000.00,025.1,024.2,000.0,033.7,026.9,012.0,0000.0,0009.49,0003.30,0001.90
2024-05-01 07:46:00,SystemResetWarning,0826.6,5.00,000.00,025.1,024.2,000.0,033.7,026.9,011.8,0000.0,0009.50,0003.32,0001.90
2024-05-01 07:47:00,SystemResetWarning,0826.4,5.00,000.00,025.1,024.2,000.0,033.7,026.9,012.0,0000.0,0009.23,0003.32,0001.92
2024-05-01 07:48:00,SystemResetWarning,0826.4,4.99,000.00,025.1,024.2,000.0,033.7,026.9,011.5,0000.0,0008.87,0003.30,0001.93
2024-05-01 07:49:00,SystemResetWarning,0826.4,5.00,000.00,025.1,024.2,000.0,033.7,026.9,011.7,0000.0,0008.69,0003.27,0001.92
2024-05-01 07:50:00,SystemResetWarning,0826.3,5.00,000.00,025.1,024.2,000.0,033.7,026.9,012.0,0000.0,0008.71,0003.31,0001.92
2024-05-01 07:51:00,SystemResetWarning,0826.2,4.99,000.00,025.0,024.2,000.0,033.7,026.9,012.0,0000.0,0008.55,0003.34,0001.93
2024-05-01 07:52:00,SystemResetWarning,0826.2,5.01,000.00,025.0,024.2,000.0,033.6,026.9,012.0,0000.0,0008.08,0003.36,0001.93
2024-05-01 07:53:00,SystemResetWarning,0826.2,5.00,000.00,025.0,024.2,000.0,033.6,026.9,011.9,0000.0,0007.70,0003.31,0001.93
2024-05-01 07:54:00,SystemResetWarning,0826.2,5.00,000.00,025.0,024.2,000.0,033.6,026.8,012.1,0000.0,0007.80,0003.28,0001.92
2024-05-01 07:55:00,SystemResetWarning,0826.2,5.01,000.00,025.0,024.2,000.0,033.6,026.8,012.3,0000.0,0008.18,0003.28,0001.93
2024-05-01 07:56:00,SystemResetWarning,0826.2,5.00,000.00,025.0,024.2,000.0,033.6,026.9,012.4,0000.0,0008.64,0003.28,0001.95
2024-05-01 07:57:00,SystemResetWarning,0826.2,5.00,000.00,025.0,024.2,000.0,033.6,026.9,012.4,0000.0,0008.90,0003.35,0001.96
2024-05-01 07:58:00,SystemResetWarning,0826.2,5.00,000.00,025.0,024.2,000.0,033.6,026.9,012.4,0000.0,0009.72,0003.37,0001.96
2024-05-01 07:59:00,SystemResetWarning,0826.2,5.01,000.00,025.0,024.2,000.0,033.6,026.9,012.4,0000.0,0009.59,0003.34,0001.95
